[[{"header":{"parameterUnit":"m.s-1","parameterCategory":1,"la1":30.2991,"la2":30.254,"lo1":-89.0895,"lo2":-89.0444,"dy":0.0017,"dx":0.0017,"nx":28,"ny":28,"refTime":"2024-11-30T03:00:00:Z","depth":0,"parameterNumber":2,"parameterNumberName":"U-component_of_WINDS"},"data":[0,0,0,0,0,0,0,0,0,0,0,0,0,0,0,0,0,0,0,0,0,0,0,0,0,0,0,0,0,0,0,0,0,0,0,0,0,0,0,0,0,0,0,0,0,0,0,0,0,0,0,0,0,0,0,0,0,0,-0.6921,-0.6921,0,-0.6945,-0.6946,-0.6946,-0.6894,-0.6892,-0.689,-0.6889,-0.6916,-0.6918,-0.6921,0,0,0,0,0,0,0,0,0,0,0,0,0,-0.6832,-0.6833,-0.6921,-0.6921,-0.6922,-0.6945,-0.6946,-0.6946,-0.6894,-0.6892,-0.689,-0.6888,-0.6915,-0.6918,-0.6921,0,0,0,0,0,0,0,0,0,0,0,0,0,-0.6865,-0.6834,-0.6921,-0.6899,-0.6897,-0.6945,-0.6946,-0.6946,-0.6894,-0.6892,-0.6889,-0.6887,-0.6915,-0.6918,-0.6921,-0.6994,0,0,-0.6932,-0.6933,0,0,0,0,0,0,0,0,-0.6863,-0.6868,-0.6902,-0.69,-0.6898,-0.6914,-0.6924,-0.6962,-0.6895,-0.6895,-0.6889,-0.6886,-0.6918,-0.6921,-0.6931,-0.6995,-0.6996,-0.6932,-0.6934,-0.6936,-0.6937,0,0,0,0,0,0,0,-0.6861,-0.6867,-0.6931,-0.6902,-0.69,-0.6888,-0.689,-0.6931,-0.6921,-0.6895,-0.6891,-0.6895,-0.6916,-0.6928,-0.6931,-0.6996,-0.6932,-0.6935,-0.6937,-0.6939,-0.7119,-0.7122,0,0,0,0,0,0,-0.6861,-0.6865,-0.693,-0.6931,-0.6874,-0.6891,-0.6893,-0.6911,-0.692,-0.6919,-0.6897,-0.6892,-0.6923,-0.6927,-0.6932,-0.7016,-0.6936,-0.6939,-0.6941,-0.7116,-0.712,-0.7123,0,0,0,0,0,0,-0.6859,-0.6867,-0.6929,-0.6897,-0.6904,-0.6896,-0.6916,-0.6913,-0.6924,-0.6921,-0.6919,-0.691,-0.6921,-0.6927,-0.6978,-0.7016,-0.6941,-0.6944,-0.7113,-0.7117,-0.7121,-0.7185,0,0,0,0,0,0,-0.6857,-0.6867,-0.6894,-0.6898,-0.6906,-0.6975,-0.6919,-0.6916,-0.693,-0.6924,-0.6933,-0.6932,-0.692,-0.6973,-0.6981,-0.702,-0.6946,-0.711,-0.7115,-0.712,-0.718,-0.7191,-0.7201,0,0,0,0,0,-0.6854,-0.6912,-0.6896,-0.6904,-0.694,-0.6977,-0.6981,-0.6965,-0.6934,-0.6961,-0.6958,-0.6932,-0.7011,-0.6979,-0.6988,-0.7027,-0.7107,-0.7114,-0.7119,-0.7175,-0.7189,-0.72,0,0,0,0,0,0,-0.6914,-0.6912,-0.6894,-0.6955,-0.6966,-0.6968,-0.7002,-0.698,-0.7001,-0.6995,-0.6974,-0.6976,-0.7031,-0.7034,-0.6999,-0.7097,-0.7054,-0.7062,-0.7093,-0.7106,-0.7116,-0.7114,-0.6949,0,0,0,0,0,-0.6934,-0.6964,-0.6961,-0.7016,-0.7022,-0.7011,-0.7027,-0.7012,-0.7024,-0.7028,-0.703,-0.7042,-0.7069,-0.7088,-0.7113,-0.718,-0.718,-0.7211,-0.7222,-0.723,-0.7238,-0.7272,-0.7285,-0.7143,-0.7143,-0.7142,0,0,-0.6977,-0.698,-0.7,-0.7028,-0.7035,-0.7066,-0.7015,-0.7051,-0.7074,-0.7034,-0.7082,-0.7083,-0.7095,-0.7154,-0.718,-0.7159,-0.7277,-0.7238,-0.7245,-0.7248,-0.728,-0.7293,-0.7305,-0.7147,-0.7146,-0.7145,0,0,-0.707,-0.7076,-0.7121,-0.7128,-0.7139,-0.7131,-0.7142,-0.7146,-0.7145,-0.7192,-0.7162,-0.7189,-0.7237,-0.7246,-0.7258,-0.7352,-0.7329,-0.7361,-0.7416,-0.745,-0.7461,-0.7471,-0.7504,-0.7516,-0.7369,-0.7369,-0.7369,0,-0.7122,-0.7168,-0.7147,-0.7184,-0.7197,-0.716,-0.7206,-0.7214,-0.7233,-0.7243,-0.7218,-0.7275,-0.7281,-0.7341,-0.7364,-0.7375,-0.7386,-0.736,-0.7461,-0.7471,-0.7479,-0.7511,-0.7523,-0.7373,-0.7372,-0.7372,-0.7371,0,-0.7231,-0.7262,-0.7298,-0.7315,-0.7331,-0.7373,-0.7358,-0.7378,-0.7362,-0.7357,-0.7405,-0.741,-0.7435,-0.7448,-0.7433,-0.7505,-0.7491,-0.7464,-0.742,-0.7497,-0.7526,-0.7538,-0.7378,-0.7377,-0.7376,-0.7375,0,0,-0.7364,-0.7367,-0.7381,-0.7387,-0.7395,-0.742,-0.7459,-0.7482,-0.7498,-0.7512,-0.7544,-0.7584,-0.7559,-0.7571,-0.7557,-0.7587,-0.766,-0.7556,-0.7556,-0.7574,-0.7739,-0.7758,-0.7773,-0.7644,-0.7647,-0.7648,-0.7737,0,-0.7456,-0.7522,-0.7503,-0.757,-0.7598,-0.7563,-0.7597,-0.7606,-0.7602,-0.7626,-0.7621,-0.765,-0.7614,-0.7621,-0.7649,-0.7646,-0.7693,-0.7639,-0.7674,-0.7675,-0.7671,-0.7788,-0.7809,-0.7893,-0.7748,-0.775,-0.7752,0,-0.7572,-0.7588,-0.7657,-0.7658,-0.7669,-0.77,-0.7719,-0.7742,-0.7751,-0.7746,-0.7759,-0.7738,-0.7777,-0.7733,-0.7785,-0.7749,-0.7762,-0.7762,-0.7765,-0.7767,-0.7718,-0.7793,-0.7919,-0.7932,-0.7769,-0.7768,-0.7767,0,-0.7661,-0.77,-0.7746,-0.7753,-0.7756,-0.7778,-0.7781,-0.7787,-0.7801,-0.7818,-0.7826,-0.7848,-0.7859,-0.7876,-0.7862,-0.7831,-0.7916,-0.7871,-0.7913,-0.7913,-0.7932,-0.7931,-0.8062,-0.7942,-0.7942,-0.7941,-0.7941,0,-0.7765,-0.7808,-0.7786,-0.7814,-0.7861,-0.7839,-0.7887,-0.7885,-0.7891,-0.7918,-0.789,-0.7916,-0.7895,-0.792,-0.7909,-0.7953,-0.7959,-0.7956,-0.7952,-0.7958,-0.7958,-0.7966,-0.796,-0.7945,-0.7944,-0.7943,-0.7943,0,-0.7873,-0.7859,-0.7907,-0.7905,-0.7905,-0.794,-0.7939,-0.7965,-0.7958,-0.7993,-0.7999,-0.7989,-0.8016,-0.8003,-0.8032,-0.8025,-0.8081,-0.8071,-0.8078,-0.8075,-0.8117,-0.8113,-0.8257,-0.8274,-0.8144,-0.8145,-0.8146,0,-0.794,-0.7972,-0.7973,-0.7988,-0.7992,-0.8018,-0.8031,-0.8011,-0.8027,-0.8038,-0.8063,-0.8087,-0.8106,-0.8151,-0.8146,-0.8167,-0.8156,-0.8205,-0.8159,-0.8163,-0.8156,-0.8153,-0.8156,-0.8214,-0.8216,-0.8217,-0.8218,0,-0.8059,-0.8051,-0.8071,-0.8089,-0.8106,-0.8119,-0.813,-0.8145,-0.8125,-0.8144,-0.817,-0.8184,-0.8213,-0.8237,-0.8255,-0.8258,-0.8235,-0.8233,-0.8243,-0.8249,-0.8251,-0.8249,-0.8102,-0.8229,-0.8228,-0.8227,-0.8227,-0.8226,-0.8148,-0.8174,-0.8178,-0.8202,-0.8207,-0.8218,-0.8241,-0.8237,-0.8258,-0.8279,-0.8266,-0.8297,-0.8303,-0.8325,-0.8331,-0.8355,-0.8336,-0.8351,-0.8355,-0.8359,-0.8364,-0.8248,-0.8359,-0.8358,-0.8358,-0.8358,-0.8357,0,-0.8265,-0.8266,-0.8287,-0.8302,-0.8321,-0.8296,-0.8306,-0.8323,-0.835,-0.8358,-0.8376,-0.8406,-0.8429,-0.8425,-0.8446,-0.8466,-0.8455,-0.8472,-0.847,-0.847,-0.8381,-0.8369,-0.848,-0.848,-0.8479,-0.8479,-0.8479,-0.8479,-0.8328,-0.8371,-0.8362,-0.8407,-0.8407,-0.8436,-0.8444,-0.8453,-0.8459,-0.8493,-0.8512,-0.8508,-0.8511,-0.8532,-0.8551,-0.855,-0.8558,-0.8578,-0.8573,-0.8489,-0.8477,-0.8465,-0.8454,-0.8581,-0.8581,-0.866,-0.8661,-0.8661]},{"header":{"parameterUnit":"m.s-1","parameterCategory":1,"la1":30.2991,"la2":30.254,"lo1":-89.0895,"lo2":-89.0444,"dy":0.0017,"dx":0.0017,"nx":28,"ny":28,"refTime":"2024-11-30T03:00:00:Z","depth":0,"parameterNumber":3,"parameterNumberName":"V-component_of_WINDS"},"data":[0,0,0,0,0,0,0,0,0,0,0,0,0,0,0,0,0,0,0,0,0,0,0,0,0,0,0,0,0,0,0,0,0,0,0,0,0,0,0,0,0,0,0,0,0,0,0,0,0,0,0,0,0,0,0,0,0,0,-5.1045,-5.1046,0,-5.1164,-5.1165,-5.1167,-5.1085,-5.1081,-5.1077,-5.1074,-5.1192,-5.1198,-5.1205,0,0,0,0,0,0,0,0,0,0,0,0,0,-5.0742,-5.0748,-5.1045,-5.1046,-5.1048,-5.1164,-5.1165,-5.1167,-5.1085,-5.1081,-5.1077,-5.1072,-5.119,-5.1198,-5.1206,0,0,0,0,0,0,0,0,0,0,0,0,0,-5.0868,-5.075,-5.1045,-5.1021,-5.102,-5.1164,-5.1166,-5.1167,-5.1086,-5.1081,-5.1075,-5.107,-5.1187,-5.1197,-5.1207,-5.1378,0,0,-5.1237,-5.1241,0,0,0,0,0,0,0,0,-5.0861,-5.088,-5.1023,-5.1023,-5.1022,-5.1104,-5.1102,-5.1238,-5.1088,-5.1061,-5.1074,-5.1067,-5.1167,-5.1178,-5.1212,-5.1384,-5.1389,-5.1238,-5.1244,-5.1248,-5.1251,0,0,0,0,0,0,0,-5.0853,-5.0874,-5.1092,-5.1025,-5.1025,-5.1003,-5.1015,-5.1127,-5.1143,-5.1063,-5.1057,-5.1073,-5.1166,-5.1203,-5.1215,-5.139,-5.1237,-5.1246,-5.1252,-5.1256,-5.1706,-5.1712,0,0,0,0,0,0,-5.0847,-5.0867,-5.1088,-5.1095,-5.0927,-5.1013,-5.1026,-5.1083,-5.1142,-5.1146,-5.1077,-5.1069,-5.1189,-5.1203,-5.1218,-5.1422,-5.1248,-5.1257,-5.1263,-5.17,-5.1708,-5.1714,0,0,0,0,0,0,-5.084,-5.0867,-5.1083,-5.098,-5.1006,-5.1024,-5.1089,-5.1089,-5.1126,-5.1153,-5.1155,-5.1113,-5.1185,-5.1205,-5.1339,-5.1425,-5.1261,-5.127,-5.1693,-5.1702,-5.1711,-5.1832,0,0,0,0,0,0,-5.0832,-5.0865,-5.0932,-5.0982,-5.1012,-5.1204,-5.1094,-5.1095,-5.1144,-5.1133,-5.1187,-5.1191,-5.1182,-5.1325,-5.1349,-5.1436,-5.1278,-5.1685,-5.1697,-5.1708,-5.182,-5.1844,-5.1864,0,0,0,0,0,-5.0822,-5.0961,-5.0936,-5.0963,-5.1096,-5.1209,-5.1226,-5.1214,-5.1151,-5.1217,-5.1234,-5.1189,-5.1412,-5.1339,-5.1366,-5.1457,-5.168,-5.1694,-5.1707,-5.181,-5.1839,-5.1863,0,0,0,0,0,0,-5.0919,-5.0967,-5.094,-5.11,-5.1151,-5.1195,-5.1278,-5.1246,-5.1315,-5.1302,-5.1284,-5.1297,-5.1437,-5.146,-5.1378,-5.1625,-5.1536,-5.1555,-5.1605,-5.1633,-5.1654,-5.1645,-5.1286,0,0,0,0,0,-5.096,-5.1049,-5.1085,-5.1223,-5.125,-5.126,-5.1309,-5.1296,-5.1348,-5.1368,-5.1395,-5.1446,-5.1527,-5.1581,-5.1657,-5.1823,-5.1832,-5.1898,-5.192,-5.1938,-5.1955,-5.2042,-5.2072,-5.1759,-5.1759,-5.1758,0,0,-5.1044,-5.1081,-5.1138,-5.1244,-5.1282,-5.1373,-5.1279,-5.138,-5.1447,-5.1383,-5.1512,-5.1533,-5.1588,-5.1739,-5.1806,-5.1762,-5.2044,-5.1955,-5.197,-5.1977,-5.2059,-5.2089,-5.2115,-5.1768,-5.1766,-5.1765,0,0,-5.1244,-5.1281,-5.14,-5.144,-5.1499,-5.1504,-5.1533,-5.1582,-5.1594,-5.1723,-5.1677,-5.1755,-5.1896,-5.1937,-5.1976,-5.219,-5.215,-5.2215,-5.233,-5.2415,-5.244,-5.2462,-5.2537,-5.2564,-5.2232,-5.2232,-5.2232,0,-5.134,-5.1478,-5.1464,-5.1569,-5.1615,-5.1563,-5.1681,-5.172,-5.1801,-5.1834,-5.1784,-5.1959,-5.1992,-5.2151,-5.2203,-5.2237,-5.2267,-5.2209,-5.2438,-5.2459,-5.2479,-5.2551,-5.2579,-5.224,-5.2239,-5.2238,-5.2237,0,-5.1593,-5.1689,-5.1777,-5.1857,-5.1914,-5.2025,-5.2026,-5.2085,-5.2067,-5.2077,-5.2208,-5.2246,-5.2328,-5.2365,-5.2348,-5.2521,-5.2491,-5.244,-5.235,-5.2517,-5.2584,-5.2611,-5.225,-5.2248,-5.2246,-5.2244,0,0,-5.1858,-5.1929,-5.1962,-5.1997,-5.2058,-5.2131,-5.2238,-5.232,-5.237,-5.2427,-5.2516,-5.2636,-5.2588,-5.2633,-5.2619,-5.2694,-5.286,-5.2633,-5.2634,-5.2673,-5.3051,-5.3089,-5.3121,-5.2834,-5.2839,-5.2843,-5.3046,0,-5.2061,-5.225,-5.224,-5.2417,-5.2504,-5.2455,-5.2548,-5.2595,-5.2607,-5.2681,-5.2694,-5.2779,-5.271,-5.2737,-5.2809,-5.2825,-5.2935,-5.281,-5.2914,-5.2918,-5.2902,-5.3156,-5.3196,-5.3386,-5.3072,-5.3076,-5.3079,0,-5.2322,-5.2389,-5.2575,-5.2622,-5.2658,-5.2743,-5.2816,-5.2888,-5.2939,-5.2942,-5.2992,-5.2966,-5.3072,-5.298,-5.3126,-5.304,-5.3082,-5.3096,-5.3103,-5.3112,-5.3009,-5.317,-5.3446,-5.3474,-5.3121,-5.3117,-5.3114,0,-5.2496,-5.2632,-5.2761,-5.2793,-5.2851,-5.2911,-5.2937,-5.2983,-5.3032,-5.3096,-5.3127,-5.3202,-5.3243,-5.33,-5.3294,-5.3228,-5.3442,-5.3349,-5.3446,-5.3446,-5.3493,-5.349,-5.3779,-5.3522,-5.3521,-5.3521,-5.352,0,-5.2723,-5.2838,-5.284,-5.2919,-5.3046,-5.3032,-5.3158,-5.3178,-5.3218,-5.3299,-5.326,-5.3336,-5.3324,-5.34,-5.3395,-5.3516,-5.3535,-5.3539,-5.3536,-5.3542,-5.3542,-5.3569,-5.3555,-5.3528,-5.3527,-5.3525,-5.3524,0,-5.2938,-5.2944,-5.3081,-5.3125,-5.3138,-5.323,-5.3266,-5.334,-5.3348,-5.345,-5.3474,-5.3487,-5.3573,-5.3573,-5.3672,-5.3669,-5.3816,-5.3799,-5.3799,-5.3796,-5.3892,-5.3883,-5.4208,-5.4249,-5.3966,-5.3969,-5.3971,0,-5.3083,-5.317,-5.3223,-5.3275,-5.3306,-5.339,-5.344,-5.3429,-5.3483,-5.3547,-5.3613,-5.3696,-5.3762,-5.3903,-5.392,-5.3994,-5.3978,-5.4087,-5.3989,-5.3991,-5.3978,-5.3973,-5.398,-5.4106,-5.4109,-5.4111,-5.4113,0,-5.3337,-5.3336,-5.341,-5.3486,-5.3547,-5.3606,-5.366,-5.3704,-5.3699,-5.3761,-5.385,-5.3902,-5.4002,-5.4085,-5.4157,-5.4182,-5.4147,-5.4144,-5.417,-5.4177,-5.4173,-5.4175,-5.3851,-5.4137,-5.4134,-5.4133,-5.4131,-5.413,-5.3521,-5.3596,-5.3645,-5.3729,-5.3768,-5.382,-5.3891,-5.3908,-5.3983,-5.4065,-5.4054,-5.4152,-5.4199,-5.4292,-5.4324,-5.4399,-5.4361,-5.4399,-5.4408,-5.4418,-5.4428,-5.4162,-5.4412,-5.4412,-5.4411,-5.441,-5.441,0,-5.3772,-5.3801,-5.3879,-5.3956,-5.4022,-5.3984,-5.4041,-5.4098,-5.4186,-5.4233,-5.4299,-5.44,-5.448,-5.4503,-5.4579,-5.4635,-5.4621,-5.4656,-5.4651,-5.4657,-5.4459,-5.4428,-5.4666,-5.4666,-5.4666,-5.4666,-5.4666,-5.4666,-5.3911,-5.4036,-5.404,-5.4183,-5.421,-5.4308,-5.4344,-5.439,-5.4427,-5.4542,-5.4609,-5.4624,-5.4661,-5.4739,-5.481,-5.4814,-5.4843,-5.4885,-5.4882,-5.4697,-5.4671,-5.4646,-5.4617,-5.4891,-5.4892,-5.5074,-5.5076,-5.5077]}]]